FENGYUN 1C DEB

Satellite information

Favourite Embed

Satellite Type and Status

DEBRISIN ORBIT

Key statistics

Satellite FENGYUN 1C DEB at a glance.

Uptime

9659

Days in orbit

Revolutions

≈ 14.5

Per day

Orbit

SSO

Sun Synchronous Orbit

Inclination

98.5

Latest

Satellite identification and parameters

Extended collection of information and parameters for FENGYUN 1C DEB.

Object identification

Identified? True

Debris? True

Object name: FENGYUN 1C DEB

International designator: 1999-025AAZ

Object number (NORAD): 30338

Object ID (CCSDS): 30338

Country: PEOPLES REPUBLIC OF CHINA (PRC)

Current information (Y/N): Y

RCS size: SMALL

Orbital parameters

Period: 99.544 minutes

Inclination: 98.4658 deg

SMA: 7114.9 km

Apoapsis: 931.992 km

Periapsis: 541.539 km

RAAN: 1.6326 deg

Eccentricy: 0.02743914

Argument of periapsis: 0.6007 deg

Mean anomaly: 179.1848 deg

Mean motion: 14.46603567 rev/day

Mean motion (dot): 0.00008754 rev/day2

B* drag term: 0.0015222566 1/REarth

Two-line elements (TLE)

Creation date: Oct. 19, 2025, 2:20 a.m.

Reference frame: TEME

Reference center: EARTH

Epoch: Oct. 18, 2025, 11:22 p.m. UTC

TLE line 0: 0 FENGYUN 1C DEB

TLE line 1: 1 30338U 99025AAZ 25291.97362023 .00008754 00000-0 15223-2 0 9992

TLE line 2: 2 30338 98.4658 1.6326 0274391 0.6007 179.1848 14.46603567973522

Live tracking on map

Real-time ground track for satellite FENGYUN 1C DEB.

In-orbit conjunctions

A list of the most updated potential collisions computed for object FENGYUN 1C DEB.

Target Orbit TCA Probability of collision Miss distance Type
SL-8 R/B LEO 2024-10-01 23:59:43 0.0001100596 830.0 (m) ROCKET BODY

Associated space launch

Chinese polar orbiting meteorological satellite

FENGYUN 1C DEB was lifted into orbit during the mission ‘Long March 4B | Feng Yun 1C’, on board a Long March 4B space rocket.

The launch took place on May 10, 1999, 1:33 a.m. from Launch Complex 7.

For more information about the launch, click the button.

Launch to space Long March 4B | Feng Yun 1C
Long March 4B | Feng Yun 1C

Agency: N/A

Status: Launch Successful

Launch date: May 10, 1999, 1:33 a.m. UTC

Rocket: Long March 4B

Launch pad: Launch Complex 7

Location: Taiyuan Satellite Launch Center, People's Republic of China

...

Latest news about this satellite

There are no fresh news available about this satellite. Check back as we update our databases every day.


Newsletter sign-up

Weekly statistics, charts and insights to help you stay on top of the space industry.